Location: Wildlife_Club
(35.6000°N, 81.4330°W)
Time: 03:41:39
(UTC-04:00)

Vanguard 2 Rocket - Pass Details

Date: 19 June 2019
Orbit: 554 x 3326 km, 32.9° (Epoch: 19 July)

Event Time Altitude Azimuth Distance (km) Brightness Sun altitude
Rises 23:31:11 0° 243° (WSW) 4,077 10.3 -24.9°
Reaches altitude 10° 23:33:29 10° 240° (WSW) 3,379 9.8 -25.1°
Maximum altitude 23:42:22 66° 160° (SSE) 2,104 8.3 -26.0°
Drops below altitude 10° 23:58:14 10° 83° (E) 5,716 10.8 -27.3°
Sets 00:03:25 0° 81° (E) 7,016 11.3 -27.7°
